Weather History for Cumberland, WI

Change the Weather History Date:

Wednesday, March 13, 2013

  Actual Average (KRPD) Record (KRPD)
Temperature  
Mean Temperature 21 °F -  
Max Temperature 30 °F 33 °F 57 °F (2007)
Min Temperature 12 °F 16 °F 0 °F (2005)
Degree Days  
Heating Degree Days 44    
Moisture  
Dew Point 6 °F    
Average Humidity 54    
Maximum Humidity 73    
Minimum Humidity 34    
Precipitation  
Precipitation 0.00 in - - ()
Sea Level Pressure  
Sea Level Pressure 30.23 in    
Wind  
Wind Speed 9 mph (WNW)    
Max Wind Speed 14 mph    
Max Gust Speed -    
Visibility 10 miles    
Events      
Averages and records for this station are not official NWS values.
T = Trace of Precipitation, MM = Missing Value Source: NWS Daily Summary

Daily Weather History Graph

Daily Weather History Graph

Search for Another Location

Airport:

Trip Planner

Search our weather history database for the weather conditions in past years. The results will help you decide how hot, cold, wet, or windy it might be!

Date:

Astronomy

Mar. 13, 2013 Rise Set
Actual Time 7:23 AM CDT 7:11 PM CDT
Civil Twilight 6:54 AM CDT 7:41 PM CDT
Nautical Twilight 6:19 AM CDT 8:15 PM CDT
Astronomical Twilight 5:44 AM CDT 8:50 PM CDT
Moon 7:56 AM CDT (3/13) 9:37 PM CDT (3/13)
Length of Visible Light 12h 46m
Length of Day
11h 47m
Waxing Crescent, 4% of the Moon is Illuminated
Mar 13
Waxing Crescent
Mar 19
First Quarter
Mar 27
Full
Apr 2
Last Quarter
Apr 10
New

Hourly Weather History & Observations

Time (CDT) Temp. Windchill Dew Point Humidity Pressure Visibility Wind Dir Wind Speed Gust Speed Precip Events Conditions
12:35 AM 17.6 °F 5.7 °F 8.6 °F 68% 30.10 in 10.0 mi NW 10.4 mph - N/A   Clear
12:55 AM 17.6 °F 6.4 °F 8.6 °F 68% 30.10 in 10.0 mi NNW 9.2 mph - N/A   Clear
1:15 AM 17.6 °F 6.4 °F 6.8 °F 63% 30.11 in 10.0 mi NNW 9.2 mph - N/A   Clear
1:35 AM 17.6 °F 6.4 °F 5.0 °F 58% 30.12 in 10.0 mi NW 9.2 mph - N/A   Clear
1:55 AM 17.6 °F 7.3 °F 5.0 °F 58% 30.12 in 10.0 mi NW 8.1 mph - N/A   Clear
2:15 AM 17.6 °F 7.3 °F 5.0 °F 58% 30.13 in 10.0 mi NW 8.1 mph - N/A   Clear
2:35 AM 15.8 °F 4.2 °F 5.0 °F 62% 30.13 in 10.0 mi NW 9.2 mph - N/A   Clear
2:55 AM 15.8 °F 5.1 °F 5.0 °F 62% 30.13 in 10.0 mi NW 8.1 mph - N/A   Clear
3:15 AM 15.8 °F 4.2 °F 5.0 °F 62% 30.14 in 10.0 mi NW 9.2 mph - N/A   Clear
3:55 AM 15.8 °F 3.4 °F 3.2 °F 58% 30.15 in 10.0 mi NW 10.4 mph - N/A   Clear
4:15 AM 15.8 °F 3.4 °F 3.2 °F 58% 30.15 in 10.0 mi NW 10.4 mph - N/A   Clear
4:35 AM 15.8 °F 4.2 °F 5.0 °F 62% 30.16 in 10.0 mi NW 9.2 mph - N/A   Clear
4:55 AM 15.8 °F 3.4 °F 5.0 °F 62% 30.16 in 10.0 mi NW 10.4 mph - N/A   Clear
5:15 AM 14.0 °F -0.8 °F 5.0 °F 67% 30.17 in 10.0 mi NW 13.8 mph - N/A   Clear
5:35 AM 14.0 °F 0.5 °F 5.0 °F 67% 30.18 in 10.0 mi NW 11.5 mph - N/A   Clear
5:55 AM 14.0 °F 2.0 °F 5.0 °F 67% 30.19 in 10.0 mi NW 9.2 mph - N/A   Clear
6:15 AM 14.0 °F 2.0 °F 5.0 °F 67% 30.20 in 10.0 mi NW 9.2 mph - N/A   Clear
6:35 AM 12.2 °F -1.0 °F 5.0 °F 73% 30.20 in 10.0 mi NW 10.4 mph - N/A   Clear
6:55 AM 12.2 °F -1.0 °F 5.0 °F 73% 30.21 in 10.0 mi NW 10.4 mph - N/A   Clear
7:15 AM 12.2 °F -1.0 °F 3.2 °F 67% 30.22 in 10.0 mi NW 10.4 mph - N/A   Clear
7:35 AM 12.2 °F -1.8 °F 5.0 °F 73% 30.23 in 10.0 mi NW 11.5 mph - N/A   Clear
7:55 AM 12.2 °F -0.2 °F 3.2 °F 67% 30.23 in 10.0 mi NW 9.2 mph - N/A   Clear
8:15 AM 12.2 °F -1.0 °F 5.0 °F 73% 30.24 in 10.0 mi NW 10.4 mph - N/A   Clear
8:35 AM 12.2 °F -1.8 °F 5.0 °F 73% 30.25 in 10.0 mi NW 11.5 mph - N/A   Clear
8:55 AM 14.0 °F 1.2 °F 5.0 °F 67% 30.25 in 10.0 mi NW 10.4 mph - N/A   Clear
9:15 AM 14.0 °F 1.2 °F 5.0 °F 67% 30.26 in 10.0 mi NW 10.4 mph - N/A   Clear
9:35 AM 15.8 °F 4.2 °F 5.0 °F 62% 30.27 in 10.0 mi NW 9.2 mph - N/A   Clear
9:55 AM 17.6 °F 7.3 °F 5.0 °F 58% 30.28 in 10.0 mi NW 8.1 mph - N/A   Clear
10:15 AM 17.6 °F 8.2 °F 5.0 °F 58% 30.28 in 10.0 mi WNW 6.9 mph - N/A   Clear
10:35 AM 19.4 °F 10.4 °F 5.0 °F 54% 30.29 in 10.0 mi WNW 6.9 mph - N/A   Clear
10:55 AM 21.2 °F 11.7 °F 5.0 °F 50% 30.29 in 10.0 mi WNW 8.1 mph - N/A   Clear
11:15 AM 23.0 °F 14.7 °F 5.0 °F 46% 30.29 in 10.0 mi NW 6.9 mph - N/A   Clear
11:35 AM 23.0 °F 13.1 °F 3.2 °F 43% 30.29 in 10.0 mi NW 9.2 mph - N/A   Clear
11:55 AM 24.8 °F 15.3 °F 3.2 °F 40% 30.29 in 10.0 mi NW 9.2 mph - N/A   Clear
12:15 PM 26.6 °F 19.1 °F 5.0 °F 40% 30.29 in 10.0 mi NW 6.9 mph - N/A   Clear
12:35 PM 26.6 °F 17.5 °F 5.0 °F 40% 30.29 in 10.0 mi NW 9.2 mph - N/A   Clear
12:55 PM 26.6 °F 16.2 °F 3.2 °F 37% 30.29 in 10.0 mi NW 11.5 mph - N/A   Clear
1:15 PM 28.4 °F 19.7 °F 3.2 °F 34% 30.28 in 10.0 mi WNW 9.2 mph - N/A   Clear
1:35 PM 28.4 °F 20.4 °F 5.0 °F 37% 30.28 in 10.0 mi WNW 8.1 mph - N/A   Clear
1:55 PM 28.4 °F 20.4 °F 5.0 °F 37% 30.28 in 10.0 mi WNW 8.1 mph - N/A   Clear
2:15 PM 30.2 °F 21.9 °F 5.0 °F 34% 30.28 in 10.0 mi NW 9.2 mph - N/A   Clear
2:35 PM 30.2 °F 23.4 °F 5.0 °F 34% 30.27 in 10.0 mi NW 6.9 mph - N/A   Clear
2:55 PM 30.2 °F 21.9 °F 5.0 °F 34% 30.27 in 10.0 mi WNW 9.2 mph - N/A   Clear
3:15 PM 30.2 °F 23.4 °F 5.0 °F 34% 30.26 in 10.0 mi WNW 6.9 mph - N/A   Clear
3:35 PM 30.2 °F 24.3 °F 8.6 °F 40% 30.26 in 10.0 mi NW 5.8 mph - N/A   Clear
3:55 PM 30.2 °F 22.6 °F 6.8 °F 37% 30.26 in 10.0 mi WNW 8.1 mph - N/A   Clear
4:15 PM 30.2 °F 21.9 °F 6.8 °F 37% 30.26 in 10.0 mi West 9.2 mph - N/A   Clear
4:35 PM 30.2 °F 23.4 °F 6.8 °F 37% 30.26 in 10.0 mi WNW 6.9 mph - N/A   Clear
4:55 PM 30.2 °F 21.3 °F 5.0 °F 34% 30.26 in 10.0 mi WNW 10.4 mph - N/A   Clear
5:15 PM 30.2 °F 23.4 °F 5.0 °F 34% 30.25 in 10.0 mi WNW 6.9 mph - N/A   Clear
5:35 PM 30.2 °F 21.9 °F 5.0 °F 34% 30.25 in 10.0 mi WNW 9.2 mph - N/A   Clear
5:55 PM 30.2 °F 21.9 °F 6.8 °F 37% 30.25 in 10.0 mi WNW 9.2 mph - N/A   Clear
6:15 PM 28.4 °F 21.2 °F 8.6 °F 43% 30.25 in 10.0 mi WSW 6.9 mph - N/A   Clear
6:35 PM 28.4 °F 19.1 °F 8.6 °F 43% 30.25 in 10.0 mi WSW 10.4 mph - N/A   Clear
6:55 PM 26.6 °F 19.1 °F 8.6 °F 47% 30.24 in 10.0 mi WSW 6.9 mph - N/A   Clear
7:15 PM 24.8 °F 16.9 °F 8.6 °F 50% 30.25 in 10.0 mi West 6.9 mph - N/A   Clear
7:35 PM 23.0 °F 14.7 °F 8.6 °F 54% 30.25 in 10.0 mi West 6.9 mph - N/A   Clear
7:55 PM 24.8 °F 16.9 °F 8.6 °F 50% 30.25 in 10.0 mi West 6.9 mph - N/A   Clear
8:15 PM 23.0 °F 15.8 °F 8.6 °F 54% 30.25 in 10.0 mi West 5.8 mph - N/A   Clear
8:35 PM 23.0 °F 15.8 °F 8.6 °F 54% 30.25 in 10.0 mi West 5.8 mph - N/A   Clear
8:55 PM 23.0 °F 17.0 °F 8.6 °F 54% 30.25 in 10.0 mi WSW 4.6 mph - N/A   Clear
9:15 PM 23.0 °F 18.4 °F 8.6 °F 54% 30.25 in 10.0 mi West 3.5 mph - N/A   Clear
9:35 PM 21.2 °F 16.4 °F 8.6 °F 58% 30.25 in 10.0 mi WSW 3.5 mph - N/A   Clear
9:55 PM 17.6 °F 10.7 °F 6.8 °F 63% 30.24 in 10.0 mi WSW 4.6 mph - N/A   Clear
10:15 PM 17.6 °F - 6.8 °F 63% 30.24 in 10.0 mi Calm Calm - N/A   Clear
10:35 PM 19.4 °F - 8.6 °F 63% 30.23 in 10.0 mi Calm Calm - N/A   Clear
10:55 PM 14.0 °F 6.5 °F 6.8 °F 73% 30.22 in 10.0 mi South 4.6 mph - N/A   Clear
11:15 PM 12.2 °F 2.9 °F 5.0 °F 73% 30.23 in 10.0 mi South 5.8 mph - N/A   Clear
11:35 PM 14.0 °F 6.5 °F 6.8 °F 73% 30.23 in 10.0 mi SW 4.6 mph - N/A   Clear
11:55 PM 14.0 °F 8.2 °F 6.8 °F 73% 30.23 in 10.0 mi SSW 3.5 mph - N/A   Clear